Time,TemperatureF,DewpointF,PressureIn,WindDirection,WindDirectionDegrees,WindSpeedMPH,WindSpeedGustMPH,Humidity,HourlyPrecipIn,Conditions,Clouds,dailyrainin,SoftwareType,DateUTC
2013-08-06 00:02:00,69.4,65.0,29.81,South,187,0.0,-999.0,87,-99.99,,,0.00,weatherlink.com 1.10,2013-08-06 05:02:00,
2013-08-06 00:17:00,69.3,66.0,29.80,South,187,0.0,-999.0,88,-99.99,,,0.00,weatherlink.com 1.10,2013-08-06 05:17:00,
2013-08-06 00:32:00,69.0,65.0,29.81,South,187,1.0,-999.0,88,-99.99,,,0.00,weatherlink.com 1.10,2013-08-06 05:32:00,
2013-08-06 00:47:00,68.9,66.0,29.81,South,187,0.0,-999.0,89,-99.99,,,0.00,weatherlink.com 1.10,2013-08-06 05:47:00,
2013-08-06 01:02:00,68.7,66.0,29.80,South,187,2.0,-999.0,90,-99.99,,,0.00,weatherlink.com 1.10,2013-08-06 06:02:00,
2013-08-06 01:17:00,68.5,66.0,29.80,South,187,1.0,-999.0,91,-99.99,,,0.00,weatherlink.com 1.10,2013-08-06 06:17:00,
2013-08-06 01:32:00,68.4,66.0,29.80,South,187,1.0,-999.0,91,-99.99,,,0.00,weatherlink.com 1.10,2013-08-06 06:32:00,
2013-08-06 01:47:00,68.2,66.0,29.80,South,187,0.0,-999.0,92,-99.99,,,0.00,weatherlink.com 1.10,2013-08-06 06:47:00,
2013-08-06 02:02:00,68.1,66.0,29.80,South,187,0.0,-999.0,92,-99.99,,,0.00,weatherlink.com 1.10,2013-08-06 07:02:00,
2013-08-06 02:17:00,67.9,66.0,29.80,South,187,0.0,-999.0,92,-99.99,,,0.00,weatherlink.com 1.10,2013-08-06 07:17:00,
2013-08-06 02:32:00,67.7,65.0,29.79,South,187,2.0,-999.0,92,-99.99,,,0.00,weatherlink.com 1.10,2013-08-06 07:32:00,
2013-08-06 02:47:00,67.7,66.0,29.78,South,187,0.0,-999.0,93,-99.99,,,0.00,weatherlink.com 1.10,2013-08-06 07:47:00,
2013-08-06 03:02:00,67.9,66.0,29.78,South,187,0.0,-999.0,93,-99.99,,,0.00,weatherlink.com 1.10,2013-08-06 08:02:00,
2013-08-06 03:17:00,67.9,66.0,29.77,South,187,0.0,-999.0,93,-99.99,,,0.00,weatherlink.com 1.10,2013-08-06 08:17:00,
2013-08-06 03:32:00,67.9,66.0,29.76,South,187,0.0,-999.0,93,-99.99,,,0.00,weatherlink.com 1.10,2013-08-06 08:32:00,
2013-08-06 03:47:00,67.9,66.0,29.76,South,187,0.0,-999.0,93,-99.99,,,0.00,weatherlink.com 1.10,2013-08-06 08:47:00,
2013-08-06 04:02:00,67.9,66.0,29.76,South,187,0.0,-999.0,93,-99.99,,,0.00,weatherlink.com 1.10,2013-08-06 09:02:00,
2013-08-06 04:17:00,67.8,66.0,29.76,South,187,0.0,-999.0,93,-99.99,,,0.00,weatherlink.com 1.10,2013-08-06 09:17:00,
2013-08-06 04:32:00,67.8,66.0,29.76,South,187,0.0,-999.0,94,-99.99,,,0.00,weatherlink.com 1.10,2013-08-06 09:32:00,
2013-08-06 04:47:00,67.7,66.0,29.77,South,187,0.0,-999.0,94,-99.99,,,0.00,weatherlink.com 1.10,2013-08-06 09:47:00,
2013-08-06 05:02:00,67.7,66.0,29.78,South,187,0.0,-999.0,94,-99.99,,,0.00,weatherlink.com 1.10,2013-08-06 10:02:00,
2013-08-06 05:17:00,67.6,66.0,29.78,South,187,0.0,-999.0,95,-99.99,,,0.00,weatherlink.com 1.10,2013-08-06 10:17:00,
2013-08-06 05:32:00,67.6,66.0,29.77,South,187,0.0,-999.0,95,-99.99,,,0.00,weatherlink.com 1.10,2013-08-06 10:32:00,
2013-08-06 05:47:00,67.6,66.0,29.78,South,187,1.0,-999.0,95,-99.99,,,0.00,weatherlink.com 1.10,2013-08-06 10:47:00,
2013-08-06 06:02:00,67.6,66.0,29.79,South,187,0.0,-999.0,95,-99.99,,,0.00,weatherlink.com 1.10,2013-08-06 11:02:00,
2013-08-06 06:17:00,67.6,67.0,29.79,South,187,0.0,-999.0,96,-99.99,,,0.00,weatherlink.com 1.10,2013-08-06 11:17:00,
2013-08-06 06:32:00,67.6,67.0,29.79,South,187,0.0,-999.0,96,-99.99,,,0.00,weatherlink.com 1.10,2013-08-06 11:32:00,
2013-08-06 06:47:00,67.7,67.0,29.81,South,187,0.0,-999.0,96,-99.99,,,0.00,weatherlink.com 1.10,2013-08-06 11:47:00,
2013-08-06 07:02:00,67.8,67.0,29.81,South,187,0.0,-999.0,96,-99.99,,,0.00,weatherlink.com 1.10,2013-08-06 12:02:00,
2013-08-06 07:17:00,67.8,67.0,29.81,South,187,1.0,-999.0,96,-99.99,,,0.00,weatherlink.com 1.10,2013-08-06 12:17:00,
2013-08-06 07:32:00,67.7,67.0,29.81,South,187,0.0,-999.0,96,-99.99,,,0.00,weatherlink.com 1.10,2013-08-06 12:32:00,
2013-08-06 07:47:00,67.9,67.0,29.81,South,187,0.0,-999.0,96,-99.99,,,0.00,weatherlink.com 1.10,2013-08-06 12:47:00,
2013-08-06 08:02:00,68.3,67.0,29.80,South,187,0.0,-999.0,96,-99.99,,,0.00,weatherlink.com 1.10,2013-08-06 13:02:00,
2013-08-06 08:17:00,68.6,68.0,29.80,South,187,0.0,-999.0,96,-99.99,,,0.00,weatherlink.com 1.10,2013-08-06 13:17:00,
2013-08-06 08:32:00,68.7,67.0,29.80,South,187,0.0,-999.0,95,-99.99,,,0.00,weatherlink.com 1.10,2013-08-06 13:32:00,
2013-08-06 08:47:00,69.1,68.0,29.80,South,187,0.0,-999.0,95,-99.99,,,0.00,weatherlink.com 1.10,2013-08-06 13:47:00,
2013-08-06 09:02:00,69.4,68.0,29.80,South,187,0.0,-999.0,94,-99.99,,,0.00,weatherlink.com 1.10,2013-08-06 14:02:00,
2013-08-06 09:17:00,69.7,68.0,29.80,South,187,0.0,-999.0,94,-99.99,,,0.00,weatherlink.com 1.10,2013-08-06 14:17:00,
2013-08-06 09:32:00,69.9,68.0,29.80,South,187,0.0,-999.0,94,-99.99,,,0.00,weatherlink.com 1.10,2013-08-06 14:32:00,
2013-08-06 09:47:00,70.2,68.0,29.82,South,187,1.0,-999.0,93,-99.99,,,0.00,weatherlink.com 1.10,2013-08-06 14:47:00,
2013-08-06 10:02:00,70.4,68.0,29.83,South,187,0.0,-999.0,93,-99.99,,,0.00,weatherlink.com 1.10,2013-08-06 15:02:00,
2013-08-06 10:17:00,70.9,69.0,29.82,South,187,3.0,-999.0,93,-99.99,,,0.00,weatherlink.com 1.10,2013-08-06 15:17:00,
2013-08-06 10:32:00,71.2,69.0,29.83,South,188,0.0,-999.0,91,-99.99,,,0.00,weatherlink.com 1.10,2013-08-06 15:32:00,
2013-08-06 10:47:00,71.9,69.0,29.82,South,188,0.0,-999.0,91,-99.99,,,0.00,weatherlink.com 1.10,2013-08-06 15:47:00,
2013-08-06 11:02:00,72.7,70.0,29.82,South,188,0.0,-999.0,90,-99.99,,,0.00,weatherlink.com 1.10,2013-08-06 16:02:00,
2013-08-06 11:17:00,73.3,70.0,29.82,South,188,0.0,-999.0,89,-99.99,,,0.00,weatherlink.com 1.10,2013-08-06 16:17:00,
2013-08-06 11:32:00,74.1,70.0,29.82,South,188,0.0,-999.0,88,-99.99,,,0.00,weatherlink.com 1.10,2013-08-06 16:32:00,
2013-08-06 11:47:00,74.8,71.0,29.81,South,188,0.0,-999.0,87,-99.99,,,0.00,weatherlink.com 1.10,2013-08-06 16:47:00,
2013-08-06 12:02:00,75.7,71.0,29.81,South,188,0.0,-999.0,86,-99.99,,,0.00,weatherlink.com 1.10,2013-08-06 17:02:00,
2013-08-06 12:17:00,76.1,72.0,29.80,South,188,0.0,-999.0,86,-99.99,,,0.00,weatherlink.com 1.10,2013-08-06 17:17:00,
2013-08-06 12:32:00,77.1,72.0,29.78,South,188,0.0,-999.0,84,-99.99,,,0.00,weatherlink.com 1.10,2013-08-06 17:32:00,
2013-08-06 12:47:00,78.2,72.0,29.79,South,188,0.0,-999.0,81,-99.99,,,0.00,weatherlink.com 1.10,2013-08-06 17:47:00,
2013-08-06 13:02:00,79.6,73.0,29.78,South,188,0.0,-999.0,80,-99.99,,,0.00,weatherlink.com 1.10,2013-08-06 18:02:00,
2013-08-06 13:17:00,81.0,73.0,29.77,South,188,0.0,-999.0,76,-99.99,,,0.00,weatherlink.com 1.10,2013-08-06 18:17:00,
2013-08-06 13:32:00,80.7,72.0,29.77,South,188,0.0,-999.0,75,-99.99,,,0.00,weatherlink.com 1.10,2013-08-06 18:32:00,
2013-08-06 13:47:00,81.8,72.0,29.77,South,188,0.0,-999.0,73,-99.99,,,0.00,weatherlink.com 1.10,2013-08-06 18:47:00,
2013-08-06 14:02:00,82.7,73.0,29.77,South,188,0.0,-999.0,73,-99.99,,,0.00,weatherlink.com 1.10,2013-08-06 19:02:00,
2013-08-06 14:17:00,81.8,72.0,29.77,South,188,0.0,-999.0,72,-99.99,,,0.00,weatherlink.com 1.10,2013-08-06 19:17:00,
2013-08-06 14:32:00,82.8,73.0,29.76,South,188,0.0,-999.0,71,-99.99,,,0.00,weatherlink.com 1.10,2013-08-06 19:32:00,
2013-08-06 14:47:00,83.1,71.0,29.76,South,188,0.0,-999.0,68,-99.99,,,0.00,weatherlink.com 1.10,2013-08-06 19:47:00,
2013-08-06 15:02:00,83.5,73.0,29.75,South,188,0.0,-999.0,70,-99.99,,,0.00,weatherlink.com 1.10,2013-08-06 20:02:00,
2013-08-06 15:17:00,84.0,73.0,29.75,South,188,1.0,-999.0,70,-99.99,,,0.00,weatherlink.com 1.10,2013-08-06 20:17:00,
2013-08-06 15:32:00,83.9,73.0,29.75,South,188,0.0,-999.0,69,-99.99,,,0.00,weatherlink.com 1.10,2013-08-06 20:32:00,
2013-08-06 15:47:00,83.2,73.0,29.74,South,188,2.0,-999.0,71,-99.99,,,0.00,weatherlink.com 1.10,2013-08-06 20:47:00,
2013-08-06 16:02:00,83.1,74.0,29.74,South,188,0.0,-999.0,73,-99.99,,,0.00,weatherlink.com 1.10,2013-08-06 21:02:00,
2013-08-06 16:17:00,83.4,74.0,29.74,South,190,0.0,-999.0,72,-99.99,,,0.00,weatherlink.com 1.10,2013-08-06 21:17:00,
2013-08-06 16:32:00,83.7,74.0,29.75,South,190,0.0,-999.0,72,-99.99,,,0.00,weatherlink.com 1.10,2013-08-06 21:32:00,
2013-08-06 16:47:00,84.0,73.0,29.75,South,186,1.0,-999.0,69,-99.99,,,0.00,weatherlink.com 1.10,2013-08-06 21:47:00,
2013-08-06 17:02:00,83.3,73.0,29.75,South,185,1.0,-999.0,71,-99.99,,,0.00,weatherlink.com 1.10,2013-08-06 22:02:00,
2013-08-06 17:17:00,83.2,74.0,29.74,South,190,0.0,-999.0,73,-99.99,,,0.00,weatherlink.com 1.10,2013-08-06 22:17:00,
2013-08-06 17:32:00,82.1,73.0,29.74,South,190,3.0,-999.0,74,-99.99,,,0.00,weatherlink.com 1.10,2013-08-06 22:32:00,
2013-08-06 17:47:00,82.8,74.0,29.75,South,188,0.0,-999.0,75,-99.99,,,0.00,weatherlink.com 1.10,2013-08-06 22:47:00,
2013-08-06 18:02:00,82.6,73.0,29.75,South,188,0.0,-999.0,73,-99.99,,,0.00,weatherlink.com 1.10,2013-08-06 23:02:00,
2013-08-06 18:17:00,81.8,73.0,29.75,South,185,4.0,-999.0,74,-99.99,,,0.00,weatherlink.com 1.10,2013-08-06 23:17:00,
2013-08-06 18:32:00,81.5,73.0,29.75,South,185,1.0,-999.0,76,-99.99,,,0.00,weatherlink.com 1.10,2013-08-06 23:32:00,
2013-08-06 18:47:00,81.2,73.0,29.75,South,185,4.0,-999.0,76,-99.99,,,0.00,weatherlink.com 1.10,2013-08-06 23:47:00,
2013-08-06 19:02:00,81.3,73.0,29.75,South,183,0.0,-999.0,77,-99.99,,,0.00,weatherlink.com 1.10,2013-08-07 00:02:00,
2013-08-06 19:17:00,81.2,74.0,29.75,South,184,3.0,-999.0,78,-99.99,,,0.00,weatherlink.com 1.10,2013-08-07 00:17:00,
2013-08-06 19:32:00,80.6,74.0,29.75,South,185,0.0,-999.0,79,-99.99,,,0.00,weatherlink.com 1.10,2013-08-07 00:32:00,
2013-08-06 19:47:00,80.0,73.0,29.75,South,185,1.0,-999.0,80,-99.99,,,0.00,weatherlink.com 1.10,2013-08-07 00:47:00,
2013-08-06 20:02:00,79.3,73.0,29.75,South,185,0.0,-999.0,81,-99.99,,,0.00,weatherlink.com 1.10,2013-08-07 01:02:00,
2013-08-06 20:17:00,78.6,73.0,29.75,South,185,2.0,-999.0,83,-99.99,,,0.00,weatherlink.com 1.10,2013-08-07 01:17:00,
2013-08-06 20:32:00,77.9,73.0,29.75,South,185,0.0,-999.0,84,-99.99,,,0.00,weatherlink.com 1.10,2013-08-07 01:32:00,
2013-08-06 20:47:00,77.2,72.0,29.75,South,185,0.0,-999.0,85,-99.99,,,0.00,weatherlink.com 1.10,2013-08-07 01:47:00,
2013-08-06 21:02:00,76.6,72.0,29.76,South,185,0.0,-999.0,86,-99.99,,,0.00,weatherlink.com 1.10,2013-08-07 02:02:00,
2013-08-06 21:17:00,76.1,72.0,29.77,South,185,0.0,-999.0,87,-99.99,,,0.00,weatherlink.com 1.10,2013-08-07 02:17:00,
2013-08-06 21:32:00,75.9,72.0,29.77,South,185,0.0,-999.0,88,-99.99,,,0.00,weatherlink.com 1.10,2013-08-07 02:32:00,
2013-08-06 21:47:00,75.8,72.0,29.77,South,185,0.0,-999.0,88,-99.99,,,0.00,weatherlink.com 1.10,2013-08-07 02:47:00,
2013-08-06 22:02:00,75.5,72.0,29.77,South,185,0.0,-999.0,88,-99.99,,,0.00,weatherlink.com 1.10,2013-08-07 03:02:00,
2013-08-06 22:17:00,75.4,72.0,29.77,South,185,0.0,-999.0,89,-99.99,,,0.00,weatherlink.com 1.10,2013-08-07 03:17:00,
2013-08-06 22:32:00,75.1,72.0,29.77,South,185,2.0,-999.0,89,-99.99,,,0.00,weatherlink.com 1.10,2013-08-07 03:32:00,
2013-08-06 22:47:00,74.9,72.0,29.77,South,185,0.0,-999.0,90,-99.99,,,0.00,weatherlink.com 1.10,2013-08-07 03:47:00,
2013-08-06 23:02:00,74.7,72.0,29.77,South,185,1.0,-999.0,91,-99.99,,,0.00,weatherlink.com 1.10,2013-08-07 04:02:00,
2013-08-06 23:17:00,74.7,72.0,29.77,South,186,1.0,-999.0,91,-99.99,,,0.00,weatherlink.com 1.10,2013-08-07 04:17:00,
2013-08-06 23:32:00,74.7,72.0,29.77,South,186,3.0,-999.0,91,-99.99,,,0.00,weatherlink.com 1.10,2013-08-07 04:32:00,
2013-08-06 23:47:00,74.5,72.0,29.77,South,186,0.0,-999.0,92,-99.99,,,0.00,weatherlink.com 1.10,2013-08-07 04:47:00,